Regional Weather Roundup
Issued by NWS

Home | Current Version | Previous Version | Text Only | Print | Product List | Glossary On
Versions: 1 2 3 4 5 6 7 8 9 10 11 12 13 14 15 16 17 18 19 20 21 22 23 24 25 26 27 28 29 30 31 32 33 34 35 36 37 38 39 40 41 42 43 44 45 46 47 48 49 50
000
ASUS44 KOUN 060400
RWROK

WEATHER ROUNDUP FOR OKLAHOMA
NATIONAL WEATHER SERVICE NORMAN OK
1100 PM CDT THU MAY 05 2016

NOTE: "FAIR" INDICATES FEW OR NO CLOUDS BELOW 12,000 FEET WITH NO
      SIGNIFICANT WEATHER AND/OR OBSTRUCTIONS TO VISIBILITY.

OKZ001>007-009>012-014-015-017-060500-
NORTHWEST OKLAHOMA AND THE PANHANDLE

CITY           SKY/WX    TMP DP  RH WIND       PRES   REMARKS
GAGE           CLEAR     64  48  56 SE9       30.05R
GUYMON         CLEAR     65  46  50 SE10G20   30.03R
$$

OKZ016-021>023-033>039-044-045-060500-
SOUTHWEST OKLAHOMA

CITY           SKY/WX    TMP DP  RH WIND       PRES   REMARKS
LAWTON/REGL    CLEAR     59  54  83 CALM      30.06R
FREDERICK      CLEAR     63  51  65 SE8       30.03R
CLINTON        CLEAR     62  48  60 SE8       30.08R
HOBART         CLEAR     62  50  64 S8        30.06R
$$

OKZ018>020-024>031-060500-
CENTRAL OKLAHOMA

CITY           SKY/WX    TMP DP  RH WIND       PRES   REMARKS
OKLAHOMA CITY  PTCLDY    62  47  57 CALM      30.06R
OKC/WILEY POST CLEAR     60  46  59 CALM      30.06R
STILLWATER     CLEAR     55  51  86 CALM      30.06R
GUTHRIE        CLEAR     59  46  62 SE3       30.06R
$$

OKZ008-013-054>072-060500-
NORTHEAST OKLAHOMA

CITY           SKY/WX    TMP DP  RH WIND       PRES   REMARKS
TULSA          PTCLDY    65  48  54 CALM      30.04R
TULSA/JONES    CLEAR     57  50  77 CALM      30.06R
PONCA CITY     CLEAR     57  50  77 CALM      30.06R
BARTLESVILLE   CLEAR     50  46  86 CALM      30.06R
MUSKOGEE       CLEAR     58  49  72 CALM      30.06R
$$

OKZ032-040>043-046>053-073>077-060500-
SOUTH CENTRAL/SOUTHEAST OKLAHOMA

CITY           SKY/WX    TMP DP  RH WIND       PRES   REMARKS
MCALESTER      PTCLDY    54  50  86 CALM      30.06R
$$




USA.gov is the U.S. government's official web portal to all federal, state and local government web resources and services.